Date,TemperatureHighF,TemperatureAvgF,TemperatureLowF,DewpointHighF,DewpointAvgF,DewpointLowF,HumidityHigh,HumidityAvg,HumidityLow,PressureMaxIn,PressureMinIn,WindSpeedMaxMPH,WindSpeedAvgMPH,GustSpeedMaxMPH,PrecipitationSumIn
2013-2-1,29.1,17.9,6.0,15.5,6.5,0.7,81,62,45,30.52,30.23,4,1,14,0.00
2013-2-2,39.8,33.1,28.4,28.8,23.8,15.6,86,69,57,30.22,30.04,9,2,15,0.00
2013-2-3,44.9,34.5,27.4,30.2,23.2,17.0,93,66,35,30.24,30.06,7,2,18,0.00
2013-2-4,55.6,39.0,23.7,35.7,28.4,20.6,88,68,45,29.97,29.81,7,1,14,0.00
2013-2-5,40.2,26.9,20.6,29.7,23.5,18.3,93,87,66,30.14,29.91,1,0,5,0.00
2013-2-6,60.7,43.1,26.2,35.5,29.3,24.1,96,64,29,30.19,29.97,10,1,15,0.00
2013-2-7,48.5,43.9,35.3,47.4,39.5,31.2,96,86,54,30.11,29.86,6,1,15,0.29
2013-2-8,35.9,32.7,31.3,33.5,29.9,28.3,91,90,88,30.36,30.11,4,1,12,0.00
2013-2-9,46.9,37.1,31.1,35.2,31.0,27.9,92,80,58,30.33,29.94,8,2,15,0.10
2013-2-10,61.8,48.3,37.3,53.3,39.1,27.5,97,75,32,29.91,29.48,13,4,31,0.24
2013-2-11,49.8,39.1,28.1,30.9,27.4,25.0,88,64,44,30.14,29.81,17,4,24,0.00
2013-2-12,43.6,33.6,24.4,31.6,27.4,21.8,95,79,58,30.17,29.97,3,0,6,0.00
2013-2-13,51.4,39.5,28.7,33.5,30.6,25.5,89,72,49,29.95,29.82,10,2,15,0.00
2013-2-14,52.7,42.5,35.2,36.3,32.4,27.6,86,69,49,30.09,29.81,6,1,17,0.00
2013-2-15,41.7,33.3,21.2,27.9,19.4,13.0,78,59,35,30.31,30.09,9,1,12,0.00
2013-2-16,37.9,26.5,15.1,21.0,16.1,11.6,88,67,40,30.32,30.17,5,1,12,0.00
2013-2-17,56.2,42.1,29.4,32.6,25.5,20.2,69,53,36,30.17,29.81,7,2,16,0.00
2013-2-18,55.6,47.9,29.3,49.6,39.0,21.4,91,72,61,29.96,29.47,5,2,21,0.21
2013-2-19,32.7,26.2,20.5,21.4,15.1,10.9,75,63,44,30.34,29.97,10,3,20,0.00
2013-2-20,27.1,21.5,13.5,16.2,13.0,8.5,82,70,60,30.44,30.28,6,2,12,0.00
2013-2-21,28.8,25.2,22.6,27.5,20.9,15.6,95,84,72,30.32,29.81,11,4,19,0.00
2013-2-22,32.9,27.5,15.9,31.6,24.0,12.9,96,87,76,30.09,29.80,11,2,16,0.01
2013-2-23,36.0,21.4,9.6,22.8,15.6,7.2,95,79,55,30.09,30.01,4,0,9,0.34
2013-2-24,51.5,31.2,9.1,30.8,20.7,6.5,96,69,38,30.12,30.00,4,1,9,0.08
2013-2-25,44.1,35.5,26.8,32.6,28.6,22.9,95,77,58,30.05,29.65,13,4,24,0.06
2013-2-26,34.4,33.4,32.5,33.7,32.3,31.1,100,96,94,29.74,29.38,6,1,14,0.23
2013-2-27,32.8,31.5,29.3,31.1,29.4,27.0,96,92,87,29.95,29.74,7,2,19,0.05
2013-2-28,34.3,31.3,28.6,29.4,27.8,25.9,92,87,81,30.16,29.96,10,2,13,0.09